This is the latest recevied weather packets stored in our database for station/object MARKET. If no packets are shown the sender has not sent any weather packets the latest 10 day(s).
| Time | Temp. | Humidity | Pressure | Rain* | Wind** | Luminosity | Snow |
|---|---|---|---|---|---|---|---|
| 1777386410 | 2.78° C | 70% | 1027.4 hPa | - | - | - | - |
| 1777385210 | 2.78° C | 70% | 1027.5 hPa | - | - | - | - |
| 1777384011 | 2.78° C | 71% | 1027.3 hPa | - | - | - | - |
| 1777382809 | 2.78° C | 72% | 1027.1 hPa | - | - | - | - |
| 1777381609 | 2.78° C | 71% | 1027.1 hPa | - | - | - | - |
| 1777380409 | 2.78° C | 75% | 1027.1 hPa | - | - | - | - |
| 1777379209 | 2.78° C | 81% | 1027.1 hPa | - | - | - | - |
| 1777378009 | 2.78° C | 74% | 1026.9 hPa | - | - | - | - |
| 1777376810 | 2.78° C | 77% | 1026.9 hPa | - | - | - | - |
| 1777375610 | 2.78° C | 77% | 1026.9 hPa | - | - | - | - |
| 1777374410 | 2.78° C | 80% | 1026.8 hPa | - | - | - | - |
| 1777373209 | 2.78° C | 79% | 1026.8 hPa | - | - | - | - |
| 1777372009 | 2.78° C | 79% | 1026.8 hPa | - | - | - | - |
| 1777370809 | 2.78° C | 79% | 1026.7 hPa | - | - | - | - |
| 1777369609 | 2.78° C | 81% | 1026.7 hPa | - | - | - | - |
| 1777368409 | 2.78° C | 79% | 1026.6 hPa | - | - | - | - |
| 1777367209 | 3.33° C | 79% | 1026.6 hPa | - | - | - | - |
| 1777366009 | 3.33° C | 80% | 1026.6 hPa | - | - | - | - |
| 1777364809 | 3.33° C | 80% | 1026.4 hPa | - | - | - | - |
| 1777363609 | 3.33° C | 82% | 1026.3 hPa | - | - | - | - |
| 1777362409 | 3.33° C | 82% | 1026.3 hPa | - | - | - | - |
| 1777361208 | 3.33° C | 78% | 1026.1 hPa | - | - | - | - |
| 1777360008 | 3.33° C | 81% | 1025.9 hPa | - | - | - | - |
| 1777358809 | 3.33° C | 81% | 1025.6 hPa | - | - | - | - |
| 1777357608 | 3.33° C | 83% | 1025.4 hPa | - | - | - | - |
* Rain since midnight (hover to see other rain measurements)
** Current wind speed in m/s (hover to see current wind gust speed)